Location: Ottawa
(45.4167°N, 75.7000°W)
Time: 23:59:52
(UTC-04:00)

Vanguard 2 - Visible Passes

Search period start: 20 August 2018 00:00
Search period end: 30 August 2018 00:00
Orbit: 554 x 2938 km, 32.9° (Epoch: 20 August)

Date Brightness Start Highest point End Pass type
(mag) Time Alt. Az. Time Alt. Az. Time Alt. Az.
27 Aug 10.9 05:11:03 10° S 05:13:13 11° SSE 05:15:11 10° SE visible
28 Aug 10.6 05:25:45 10° SSW 05:31:10 16° SSE 05:35:29 10° SE visible
29 Aug 10.4 05:42:03 10° SSW 05:49:08 20° SSE 05:54:21 10° ESE visible
